Waarnemingen

Advertentie
Mijn weer
Bezier-Vias, Frankrijk (7638): temperatuur & dauwpunt: 14.10.2018 15:00:00 - 20.10.2018 15:00:00 (CEST)Bezier-Vias, Frankrijk (7638): windsnelheid & windstoten: 14.10.2018 15:00:00 - 20.10.2018 15:00:00 (CEST)Bezier-Vias, Frankrijk (7638): windrichting: 14.10.2018 15:00:00 - 20.10.2018 15:00:00 (CEST)Bezier-Vias, Frankrijk (7638): luchtdruk: 14.10.2018 15:00:00 - 20.10.2018 15:00:00 (CEST)Bezier-Vias, Frankrijk (7638): zicht: 14.10.2018 15:00:00 - 20.10.2018 15:00:00 (CEST)Bezier-Vias, Frankrijk (7638): neerslag: 14.10.2018 15:00:00 - 20.10.2018 15:00:00 (CEST)
Datum & Tijd tt [°C] td [°C] ff [km/u] ff [kn] fx [km/u] fx [kn] dd ppp [hPa] vv [km] rr [mm]
20.10.2018 15:00:00 - - - - - - - - - -
20.10.2018 14:00:00 24,2 11,5 16 9 27 15 NO 1023,1 43 0,0
20.10.2018 13:00:00 23,4 12,1 9 5 20 11 N 1023,8 20 0,0
20.10.2018 12:00:00 21,8 15,2 6 3 16 9 NW 1023,8 20 0,0
20.10.2018 11:00:00 19,0 15,5 4 2 13 7 NW 1023,9 19 0,0
20.10.2018 10:00:00 16,1 15,0 7 4 10 6 NW 1023,3 16 0,0
20.10.2018 09:00:00 14,4 13,6 4 2 10 5 NNW 1022,6 13 0,0
20.10.2018 08:00:00 13,6 12,7 6 3 9 5 NNO 1021,6 11 0,0
20.10.2018 07:00:00 13,4 12,5 4 2 11 6 WNW 1021,3 8 0,2
20.10.2018 06:00:00 13,6 12,7 3 2 6 4 NW 1020,6 9 0,0
20.10.2018 05:00:00 13,7 12,8 5 3 9 5 WNW 1020,4 9 0,0
20.10.2018 04:00:00 14,2 13,2 5 3 10 5 W 1020,4 9 0,0
20.10.2018 03:00:00 14,3 13,2 8 4 10 5 NNW 1020,5 11 0,0
20.10.2018 02:00:00 14,8 13,5 3 1 6 4 W 1020,5 8 0,0
20.10.2018 01:00:00 15,7 14,2 2 1 9 5 N 1020,3 14 0,0
20.10.2018 00:00:00 16,0 14,5 5 3 9 5 NW 1020,0 11 0,0
19.10.2018 23:00:00 16,0 14,4 3 1 6 3 NNW 1019,8 10 0,0
19.10.2018 22:00:00 16,5 14,3 3 1 10 5 N 1019,3 10 0,0
19.10.2018 21:00:00 17,7 15,3 4 2 5 3 WZW 1018,9 12 0,0
19.10.2018 20:00:00 18,7 15,2 3 1 7 4 W 1018,6 16 0,0
19.10.2018 19:00:00 20,1 15,1 5 3 7 4 WZW 1018,0 17 0,0
19.10.2018 18:00:00 21,8 14,4 4 2 11 6 Z 1017,6 25 0,0
19.10.2018 17:00:00 22,8 14,1 9 5 18 10 Z 1017,7 26 0,0
19.10.2018 16:00:00 23,6 13,2 6 3 16 9 ZO 1017,6 34 0,0
19.10.2018 15:00:00 24,8 12,1 5 3 13 7 NO 1017,6 19 0,0
19.10.2018 14:00:00 23,4 12,4 4 2 15 8 NNO 1018,1 29 0,0
19.10.2018 13:00:00 22,0 12,0 10 5 18 10 ONO 1018,4 20 0,0
19.10.2018 12:00:00 20,6 14,7 7 4 15 8 N 1018,5 20 0,0
19.10.2018 11:00:00 18,4 16,6 6 3 15 8 NW 1018,4 17 0,0
19.10.2018 10:00:00 15,3 14,5 5 3 11 6 W 1018,5 4,6 0,0
19.10.2018 09:00:00 13,7 12,9 4 2 9 5 WNW 1017,3 13 0,0
19.10.2018 08:00:00 13,2 12,4 7 4 9 5 NW 1016,4 10 0,0
19.10.2018 07:00:00 13,6 12,8 6 3 11 6 W 1016,2 9 0,2
19.10.2018 06:00:00 14,3 13,5 3 1 8 4 W 1016,2 14 0,0
19.10.2018 05:00:00 14,4 13,6 4 2 10 5 N 1015,9 9 0,0
19.10.2018 04:00:00 14,4 13,6 4 2 12 6 NW 1015,9 4,7 0,0
19.10.2018 03:00:00 14,7 13,9 5 3 9 5 WNW 1015,7 7 0,0
19.10.2018 02:00:00 14,9 13,9 6 3 11 6 WNW 1015,9 4,5 0,0
19.10.2018 01:00:00 15,6 14,6 9 5 11 6 WNW 1015,8 6 0,0
19.10.2018 00:00:00 15,5 14,4 7 4 12 6 WNW 1015,7 7 0,0
18.10.2018 23:00:00 15,8 14,5 5 3 10 5 W 1015,3 5 0,0
18.10.2018 22:00:00 16,6 15,1 8 5 17 9 WNW 1014,9 11 0,0
18.10.2018 21:00:00 17,2 15,4 8 5 21 11 W 1014,5 11 0,0
18.10.2018 20:00:00 18,0 16,0 12 7 19 10 W 1014,2 17 0,0
18.10.2018 19:00:00 19,2 16,2 12 7 19 10 W 1013,7 20 0,0
18.10.2018 18:00:00 21,1 17,1 9 5 16 8 W 1013,4 25 0,0
18.10.2018 17:00:00 22,1 17,0 6 4 15 8 WZW 1013,5 26 0,0
18.10.2018 16:00:00 24,2 12,8 6 4 14 7 ZO 1013,5 35 0,0
18.10.2018 15:00:00 23,3 13,7 4 2 16 9 N 1013,8 20 0,0
18.10.2018 14:00:00 22,9 14,2 5 3 11 6 NW 1014,3 18 0,0
18.10.2018 13:00:00 21,2 15,3 5 3 14 8 N 1014,8 37 0,0
18.10.2018 12:00:00 19,9 15,9 10 6 15 8 NNO 1014,8 20 0,0
18.10.2018 11:00:00 18,1 15,7 10 5 14 8 NNO 1014,9 20 0,0
18.10.2018 10:00:00 17,2 15,2 10 5 18 10 NNO 1014,7 19 0,0
18.10.2018 09:00:00 16,5 14,9 14 7 21 11 N 1014,4 18 0,0
18.10.2018 08:00:00 16,1 15,1 8 4 14 8 N 1014,1 13 0,0
18.10.2018 07:00:00 16,2 15,2 10 6 15 8 N 1014,0 13 0,4
18.10.2018 06:00:00 16,4 15,4 3 2 14 7 NNW 1014,1 10 0,0
18.10.2018 05:00:00 16,4 15,4 7 4 11 6 NNO 1014,0 8 0,2
18.10.2018 04:00:00 16,4 15,4 0 0 11 6 N 1014,4 11 0,4
18.10.2018 03:00:00 16,7 15,6 5 3 9 5 O 1014,8 2,4 1,4
18.10.2018 02:00:00 16,8 15,7 5 3 16 9 NNW 1015,0 13 0,2
18.10.2018 01:00:00 16,8 15,7 9 5 14 8 NNW 1015,1 9 0,4
18.10.2018 00:00:00 17,1 15,8 3 2 9 5 N 1015,7 8 0,2
17.10.2018 23:00:00 17,4 15,7 5 3 18 10 ONO 1015,8 4,2 0,6
17.10.2018 22:00:00 17,5 15,8 5 3 11 6 WNW 1015,3 12 0,0
17.10.2018 21:00:00 17,9 15,9 5 3 9 5 N 1015,2 16 0,0
17.10.2018 20:00:00 18,0 16,0 6 4 10 6 N 1014,8 16 0,0
17.10.2018 19:00:00 18,8 16,0 5 3 6 3 NW 1014,7 20 0,0
17.10.2018 18:00:00 19,6 15,9 4 2 10 6 WNW 1014,7 29 0,0
17.10.2018 17:00:00 20,1 15,1 6 3 14 7 NW 1015,2 31 0,0
17.10.2018 16:00:00 20,1 14,7 9 5 17 9 NNW 1015,3 41 0,0
17.10.2018 15:00:00 19,6 15,3 10 6 22 12 NW 1015,7 34 0,0
17.10.2018 14:00:00 18,5 16,8 11 6 17 9 NW 1016,3 13 0,4
17.10.2018 13:00:00 17,6 15,2 8 4 20 11 OZO 1017,5 3,8 0,4
17.10.2018 12:00:00 18,0 14,7 14 8 20 11 O 1017,6 19 0,0
17.10.2018 11:00:00 17,7 15,5 4 2 15 8 N 1017,4 15 0,0
17.10.2018 10:00:00 16,5 15,4 10 5 17 9 NW 1017,6 9 0,0
17.10.2018 09:00:00 15,9 14,8 7 4 10 6 W 1017,6 6 0,0
17.10.2018 08:00:00 15,8 14,7 3 2 9 5 WNW 1017,4 4,3 0,0
17.10.2018 07:00:00 15,7 14,6 3 2 8 4 WNW 1017,5 6 0,0
17.10.2018 06:00:00 15,7 14,2 4 2 12 7 WZW 1017,8 11 0,0
17.10.2018 05:00:00 15,5 14,0 5 3 13 7 WNW 1017,6 12 0,2
17.10.2018 04:00:00 15,7 14,2 6 3 18 10 NW 1018,0 8 0,0
17.10.2018 03:00:00 15,7 14,4 8 5 16 8 N 1018,3 11 0,0
17.10.2018 02:00:00 15,7 14,4 9 5 15 8 N 1018,7 10 0,2
17.10.2018 01:00:00 15,9 14,6 5 3 16 9 NNO 1019,0 10 0,0
17.10.2018 00:00:00 15,7 14,1 8 4 11 6 NNO 1019,1 10 0,0
16.10.2018 23:00:00 16,6 14,8 9 5 17 9 N 1019,3 15 0,0
16.10.2018 22:00:00 16,7 15,1 11 6 17 9 N 1019,2 13 0,0
16.10.2018 21:00:00 16,1 14,8 10 5 13 7 NNO 1019,0 9 0,0
16.10.2018 20:00:00 16,8 15,1 9 5 18 10 NNO 1018,7 10 0,0
16.10.2018 19:00:00 17,2 15,5 11 6 19 11 NNO 1018,3 12 0,2
16.10.2018 18:00:00 17,8 16,1 11 6 26 14 NNO 1018,0 7 0,8
16.10.2018 17:00:00 18,6 15,8 18 10 27 14 NO 1017,7 15 0,0
16.10.2018 16:00:00 17,8 15,8 15 8 29 16 NNO 1017,7 11 0,0
16.10.2018 15:00:00 17,5 15,7 21 12 33 18 NO 1017,6 10 0,0
16.10.2018 14:00:00 17,2 15,9 16 9 33 18 ONO 1017,9 7 1,2
16.10.2018 13:00:00 16,6 15,1 20 11 38 21 ONO 1018,2 1,8 2,0
16.10.2018 12:00:00 18,0 16,5 18 10 37 20 ONO 1017,5 10 7,8
16.10.2018 11:00:00 18,1 15,5 22 12 43 23 ONO 1017,1 7 0,4
16.10.2018 10:00:00 19,2 15,3 17 9 39 21 OZO 1016,7 16 0,0
16.10.2018 09:00:00 18,8 15,8 22 12 39 21 OZO 1016,1 13 0,0
16.10.2018 08:00:00 18,8 16,2 18 10 37 20 OZO 1015,1 13 0,0
16.10.2018 07:00:00 18,6 16,2 22 12 39 21 OZO 1014,5 16 0,0
16.10.2018 06:00:00 18,5 16,3 25 14 40 21 O 1014,1 14 0,0
16.10.2018 05:00:00 18,6 16,2 23 12 37 20 O 1013,7 14 0,0
16.10.2018 04:00:00 18,6 16,2 21 11 37 20 OZO 1013,5 14 0,0
16.10.2018 03:00:00 18,2 15,8 11 6 25 13 O 1013,6 45 0,0
16.10.2018 02:00:00 18,2 16,2 11 6 34 18 O 1013,5 19 0,0
16.10.2018 01:00:00 18,3 16,3 22 12 40 22 OZO 1012,9 37 0,0
16.10.2018 00:00:00 17,4 15,6 15 8 54 29 O 1012,6 13 0,4
15.10.2018 23:00:00 19,1 16,7 23 13 42 23 OZO 1012,2 16 0,0
15.10.2018 22:00:00 19,2 17,3 26 14 44 24 O 1011,9 11 0,0
15.10.2018 21:00:00 19,1 17,4 21 11 32 17 O 1011,4 9 0,0
15.10.2018 20:00:00 18,5 16,8 12 6 25 13 O 1010,9 8 0,0
15.10.2018 19:00:00 19,0 17,3 17 9 33 18 OZO 1010,1 9 0,0
15.10.2018 18:00:00 18,7 17,2 13 7 25 14 OZO 1009,5 8 0,0
15.10.2018 17:00:00 16,7 15,6 5 3 40 22 OZO 1009,0 16 20,2
15.10.2018 16:00:00 18,8 16,6 8 4 19 11 ZO 1008,6 1,6 6,2
15.10.2018 15:00:00 19,2 17,7 8 4 19 10 Z 1008,3 43 1,5
15.10.2018 14:00:00 17,5 16,2 12 7 103 55 ZW 1007,7 9 7,3
15.10.2018 13:00:00 18,6 16,9 39 21 64 35 OZO 1008,2 7 3,0
15.10.2018 12:00:00 15,9 13,9 12 7 68 37 WZW 1008,8 15 1,3
15.10.2018 11:00:00 17,5 15,5 40 22 94 51 ZO 1007,5 7 3,4
15.10.2018 10:00:00 18,6 16,9 41 22 77 41 OZO 1006,7 1,4 6,7
15.10.2018 09:00:00 19,2 17,3 50 27 82 45 OZO 1006,5 4,0 2,8
15.10.2018 08:00:00 19,4 17,5 46 25 80 43 OZO 1006,4 2,4 1,6
15.10.2018 07:00:00 19,7 17,7 38 21 73 39 OZO 1006,7 6 0,8
15.10.2018 06:00:00 19,8 17,4 40 21 71 38 OZO 1007,1 9 0,4
15.10.2018 05:00:00 19,8 17,0 37 20 72 39 OZO 1008,0 8 0,0
15.10.2018 04:00:00 20,3 16,1 41 22 68 37 OZO 1008,5 13 0,0
15.10.2018 03:00:00 20,3 16,7 39 21 66 35 OZO 1009,1 15 0,0
15.10.2018 02:00:00 20,2 17,0 39 21 71 38 OZO 1009,7 13 0,0
15.10.2018 01:00:00 19,8 17,0 36 20 61 33 OZO 1010,4 12 0,0
15.10.2018 00:00:00 19,9 16,5 31 17 55 30 OZO 1011,0 16 0,0
14.10.2018 23:00:00 19,9 16,7 30 16 50 27 OZO 1011,3 15 0,0
14.10.2018 22:00:00 20,0 17,0 29 15 48 26 OZO 1011,5 14 0,0
14.10.2018 21:00:00 20,0 17,2 27 14 51 28 OZO 1011,5 12 0,0
14.10.2018 20:00:00 20,1 17,5 28 15 53 29 OZO 1011,5 12 0,0
14.10.2018 19:00:00 20,0 17,2 27 15 50 27 OZO 1011,2 12 0,0
14.10.2018 18:00:00 19,9 17,7 27 14 61 33 OZO 1011,0 8 0,0
14.10.2018 17:00:00 19,9 18,0 30 16 58 31 OZO 1010,9 8 0,2
14.10.2018 16:00:00 20,4 18,5 28 15 53 29 ZO 1011,3 10 0,0
14.10.2018 15:00:00 20,0 18,0 26 14 56 30 ZO 1011,3 12 1,4

tt = temperatuur
td = dauwpunt
ff = windsnelheid
fx = windstoten
dd = windrichting
ppp = luchtdruk
vv = zicht
rr = neerslag

Weerstations in de omgeving